User: anonymous   Login
Location: Domont
(49.0278°N, 2.3264°E)
Time: 15:54:22
(UTC+00:00)
Language:

Cosmos 1607 - Orbit

View from above orbital plane
View from above orbital plane
View from above satellite
View from above satellite

Ground track
Ground track

The orbit data is extracted from the following two-line orbital elements,

1 15378U 84112A   22021.93468626 -.00000066  00000-0  20016-4 0  9997
2 15378  64.9914 262.0541 0040695 182.3482 177.7393 13.83575881882601
Epoch (UTC): 21 January 2022 22:25:56
Eccentricity: 0.0040695
inclination: 64.9914°
perigee height: 921 km
apogee height: 981 km
right ascension of ascending node: 262.0541°
argument of perigee: 182.3482°
revolutions per day: 13.83575881
mean anomaly at epoch: 177.7393°
orbit number at epoch: 88260

The dashed part of the orbit path shows where the satellite is in the earth's shadow,  

DLR